Regional Weather Roundup
Issued by NWS State College, PA

Home | Current Version | Previous Version | Text Only | Print | Product List | Glossary On
Versions: 1 2 3 4 5 6 7 8 9 10 11 12 13 14 15 16 17 18 19 20 21 22 23 24 25 26 27 28 29 30 31 32 33 34 35 36 37 38 39 40 41 42 43 44 45 46 47 48 49 50
000
ASUS41 KCTP 291303
RWRCTP

REGIONAL WEATHER ROUNDUP
NATIONAL WEATHER SERVICE STATE COLLEGE PA
800 AM EST THU JAN 29 2015

Note: "fair" indicates few or no clouds below 12,000 feet with no
significant weather and/or obstructions to visibility.

* = STATION THAT DOES NOT REPORT PRECIPITATION /E.G. RAIN...SNOW...ETC/
    THUNDER OR FOG.

PAZ002>004-007>009-013>016-020>023-029>032-291400-
WESTERN PENNSYLVANIA

CITY           SKY/WX    TMP DP  RH WIND       PRES   REMARKS
ERIE           CLOUDY    29   6  38 S20G28    29.98F
MEADVILLE      CLOUDY    23   7  50 VRB5      29.97F
FRANKLIN*      CLOUDY    21   7  53 SE8       30.01F WCI  12
NEW CASTLE     FAIR      23   9  55 CALM      30.02F
BEAVER COUNTY  PTCLDY    23  12  63 SE7       30.11R WCI  15
BUTLER*        CLOUDY    23   9  54 E8        30.03F WCI  14
PITTSBURGH INT CLOUDY    24  11  57 SE9       30.01F WCI  14
PITTSBURGH     CLOUDY    21  11  65 SE6       30.02F WCI  13
INDIANA*       CLOUDY    27   7  43 CALM      30.12F
LATROBE        CLOUDY    21  18  86 CALM      30.09F
WASHINGTON CO* CLOUDY    25  14  63 SW5       30.03F
$$

PAZ004>006-010>012-017>019-024>028-033>037-041-042-045-046-049>053-291400-
CENTRAL PENNSYLVANIA

CITY           SKY/WX    TMP DP  RH WIND       PRES   REMARKS
BRADFORD       CLOUDY    22   0  38 S8        30.05S WCI  12
DUBOIS         CLOUDY    20   3  48 SE10      30.07R WCI   9
CLEARFIELD     CLOUDY     8   4  83 N8        30.13F WCI  -4
JOHNSTOWN      CLOUDY    23   4  44 S7        30.07S WCI  15
ALTOONA        CLOUDY    12   7  80 CALM      30.17S HAZE
STATE COLLEGE  CLOUDY     9   5  85 CALM      30.20F
WILLIAMSPORT   MOCLDY     5   0  79 CALM      30.27F
SELINSGROVE    MOCLDY     3  -1  83 CALM      30.28F
FT INDIANTOWN  PTCLDY     8   1  73 NE2       30.28F
CAPITAL CITY   MOCLDY   N/A N/A N/A CALM      30.30F
HARRISBURG     MOCLDY    14   8  77 E3        30.30F
YORK           PTCLDY    10   5  80 CALM      30.28F
$$

PAZ038>040-043-044-047-048-054-055-060>062-067>071-291400-
EASTERN PENNSYLVANIA

CITY           SKY/WX    TMP DP  RH WIND       PRES   REMARKS
SCRANTON       CLEAR      7   1  76 E5        30.25F WCI  -2
MOUNT POCONO   PTCLDY     3  -3  76 NE5       30.18F WCI  -6
ALLENTOWN      PTCLDY     6  -1  73 NE3       30.32S
QUAKERTOWN*    MOSUNNY    3  -2  78 CALM      30.32S
READING        PTCLDY    10   5  80 CALM      30.30F
LANCASTER      PTCLDY     9   4  80 E3        30.30F HAZE
COATESVILLE    MOSUNNY   21   5  49 CALM      30.29F
POTTSTOWN      PTCLDY     9   2  73 CALM      30.33S HAZE
BLUE BELL      PTCLDY    12   7  79 CALM      30.32F
DOYLESTOWN     PTCLDY    15   3  59 NE5       30.31F WCI   8
WILLOW GROVE   NOT AVBL
NORTH PHILA    CLEAR     20   3  48 CALM      30.35S
PHILADELPHIA   PTCLDY    23   7  50 NE3       30.35S
$$


USA.gov is the U.S. government's official web portal to all federal, state and local government web resources and services.